This is the latest recevied weather packets stored in our database for station/object N4AN. If no packets are shown the sender has not sent any weather packets the latest 10 day(s).
| Time | Temp. | Humidity | Pressure | Rain* | Wind** | Luminosity | Snow |
|---|---|---|---|---|---|---|---|
| 1787518397 | 31.67° C | 72% | 1009.9 hPa | 0 mm | - | - | - |
| 1787518087 | 31.67° C | 72% | 1009.7 hPa | 0 mm | - | - | - |
| 1787517473 | 31.67° C | 68% | 1009.8 hPa | 0 mm | - | - | - |
| 1787516873 | 31.67° C | 68% | 1009.6 hPa | 0 mm | - | - | - |
| 1787516123 | 32.22° C | 66% | 1010 hPa | 0 mm | - | - | - |
| 1787515822 | 31.67° C | 67% | 1010.1 hPa | 0 mm | - | - | - |
| 1787515522 | 31.67° C | 66% | 1009.9 hPa | 0 mm | - | - | - |
| 1787515222 | 31.67° C | 65% | 1010 hPa | 0 mm | - | - | - |
| 1787514906 | 31.67° C | 65% | 1010.1 hPa | 0 mm | - | - | - |
| 1787514206 | 31.11° C | 63% | 1010.2 hPa | 0 mm | - | - | - |
| 1787513906 | 31.11° C | 63% | 1010 hPa | 0 mm | - | - | - |
| 1787513605 | 31.11° C | 63% | 1010.2 hPa | 0 mm | - | - | - |
| 1787513305 | 31.11° C | 64% | 1010.2 hPa | 0 mm | - | - | - |
| 1787513005 | 31.11° C | 66% | 1010.2 hPa | 0 mm | - | - | - |
| 1787512704 | 31.67° C | 67% | 1010.3 hPa | 0 mm | - | - | - |
| 1787512404 | 31.67° C | 69% | 1010.3 hPa | 0 mm | - | - | - |
| 1787512104 | 31.67° C | 71% | 1010.3 hPa | 0 mm | - | - | - |
| 1787511804 | 31.67° C | 72% | 1010.3 hPa | 0 mm | - | - | - |
| 1787511503 | 31.67° C | 72% | 1010.6 hPa | 0 mm | - | - | - |
| 1787511199 | 31.67° C | 72% | 1010.4 hPa | 0 mm | - | - | - |
| 1787510899 | 31.67° C | 72% | 1010 hPa | 0 mm | - | - | - |
| 1787510599 | 32.22° C | 71% | 1009.8 hPa | 0 mm | - | - | - |
| 1787510298 | 32.78° C | 70% | 1009.8 hPa | 0 mm | - | - | - |
| 1787509997 | 33.33° C | 69% | 1010 hPa | 0 mm | - | - | - |
| 1787509696 | 33.33° C | 68% | 1010.5 hPa | 0 mm | - | - | - |
* Rain latest hour (hover to see other rain measurements)
** Current wind speed in m/s (hover to see current wind gust speed)